When you browse on this site, cookies collect data to enhance your experience and personalize the content and advertising you see.
Visit our Privacy Policy to learn more. By continuing to use the site, you agree to this use of cookies and data.

Hourly Weather Lankaran

Today, 15 August, Saturday

Time Temperature Precipitation Wind Pressure Humidity
00:00 +13°C° 0 mm 1 mps 630 mmHg 79%
01:00 +13°C° 0 mm 1 mps 630 mmHg 80%
02:00 +13°C° 0 mm 1 mps 629 mmHg 82%
03:00 +12°C° 0 mm 1 mps 629 mmHg 84%
04:00 +13°C° 0 mm 1 mps 630 mmHg 85%
05:00 +13°C° 0 mm 1 mps 630 mmHg 85%
06:00 +13°C° 0 mm 1 mps 631 mmHg 86%
07:00 +15°C° 0 mm 2 mps 631 mmHg 79%
08:00 +16°C° 0 mm 3 mps 632 mmHg 71%
09:00 +17°C° 0 mm 4 mps 632 mmHg 64%
10:00 +17°C° 0.1 mm 4 mps 632 mmHg 67%
11:00 +17°C° 0.1 mm 4 mps 632 mmHg 71%
12:00 +15°C° 0.1 mm 4 mps 632 mmHg 74%
13:00 +15°C° 0.1 mm 4 mps 632 mmHg 76%
14:00 +15°C° 0.1 mm 4 mps 632 mmHg 78%
15:00 +14°C° 0.1 mm 4 mps 632 mmHg 79%
16:00 +14°C° 0.2 mm 4 mps 632 mmHg 82%
17:00 +13°C° 0.2 mm 3 mps 632 mmHg 86%
18:00 +13°C° 0.2 mm 3 mps 632 mmHg 89%
19:00 +13°C° 0.2 mm 3 mps 632 mmHg 90%
20:00 +13°C° 0.2 mm 2 mps 632 mmHg 91%
21:00 +13°C° 0.2 mm 2 mps 633 mmHg 92%
22:00 +13°C° 0.5 mm 2 mps 632 mmHg 92%
23:00 +13°C° 0.5 mm 2 mps 632 mmHg 93%

Tomorrow, 16 August, Sunday

Time Temperature Precipitation Wind Pressure Humidity
00:00 +13°C° 0.5 mm 2 mps 632 mmHg 93%
01:00 +13°C° 0.1 mm 2 mps 632 mmHg 93%
02:00 +13°C° 0.1 mm 2 mps 632 mmHg 93%
03:00 +13°C° 0.1 mm 2 mps 632 mmHg 93%
04:00 +13°C° 0.1 mm 2 mps 632 mmHg 92%
05:00 +13°C° 0.1 mm 2 mps 632 mmHg 92%
06:00 +13°C° 0.1 mm 2 mps 632 mmHg 92%
07:00 +14°C° 0.1 mm 2 mps 632 mmHg 88%
08:00 +14°C° 0.1 mm 2 mps 633 mmHg 84%
09:00 +14°C° 0.1 mm 3 mps 633 mmHg 80%
10:00 +14°C° 0.2 mm 3 mps 633 mmHg 80%
11:00 +14°C° 0.2 mm 3 mps 633 mmHg 81%
12:00 +16°C° 0.2 mm 3 mps 633 mmHg 81%
13:00 +16°C° 0.1 mm 3 mps 632 mmHg 80%
14:00 +16°C° 0.1 mm 3 mps 632 mmHg 79%
15:00 +16°C° 0.1 mm 3 mps 632 mmHg 77%
16:00 +16°C° 0 mm 3 mps 632 mmHg 78%
17:00 +15°C° 0 mm 2 mps 632 mmHg 79%
18:00 +15°C° 0 mm 2 mps 631 mmHg 80%
19:00 +14°C° 0 mm 2 mps 631 mmHg 81%
20:00 +13°C° 0 mm 1 mps 631 mmHg 83%
21:00 +12°C° 0 mm 1 mps 631 mmHg 85%
22:00 +12°C° 0 mm 1 mps 631 mmHg 85%
23:00 +12°C° 0 mm 1 mps 631 mmHg 85%

Day after tomorrow, 17 August, Monday

Time Temperature Precipitation Wind Pressure Humidity
00:00 +12°C° 0 mm 1 mps 631 mmHg 85%
01:00 +12°C° 0 mm 1 mps 631 mmHg 85%
02:00 +11°C° 0 mm 1 mps 630 mmHg 85%
03:00 +11°C° 0 mm 1 mps 630 mmHg 85%
04:00 +11°C° 0 mm 1 mps 631 mmHg 84%
05:00 +12°C° 0 mm 1 mps 631 mmHg 83%
06:00 +12°C° 0 mm 1 mps 631 mmHg 81%
07:00 +14°C° 0 mm 2 mps 632 mmHg 74%
08:00 +15°C° 0 mm 2 mps 632 mmHg 66%
09:00 +17°C° 0 mm 3 mps 633 mmHg 59%
10:00 +17°C° 0 mm 4 mps 633 mmHg 59%
11:00 +18°C° 0 mm 4 mps 633 mmHg 59%
12:00 +18°C° 0 mm 4 mps 633 mmHg 59%
13:00 +18°C° 0.2 mm 4 mps 633 mmHg 66%
14:00 +16°C° 0.2 mm 5 mps 633 mmHg 73%
15:00 +15°C° 0.2 mm 5 mps 632 mmHg 80%
16:00 +14°C° 0.3 mm 4 mps 632 mmHg 83%
17:00 +13°C° 0.3 mm 4 mps 632 mmHg 86%
18:00 +13°C° 0.3 mm 3 mps 632 mmHg 89%
19:00 +13°C° 0.3 mm 3 mps 633 mmHg 89%
20:00 +12°C° 0.3 mm 3 mps 633 mmHg 90%
21:00 +12°C° 0.3 mm 3 mps 634 mmHg 90%
22:00 +13°C° 0.2 mm 2 mps 634 mmHg 90%
23:00 +13°C° 0.2 mm 2 mps 634 mmHg 91%

18 August, Tuesday

Time Temperature Precipitation Wind Pressure Humidity
00:00 +13°C° 0.2 mm 2 mps 634 mmHg 91%
01:00 +13°C° 0.1 mm 2 mps 634 mmHg 92%
02:00 +12°C° 0.1 mm 2 mps 634 mmHg 92%
03:00 +12°C° 0.1 mm 2 mps 633 mmHg 93%
04:00 +12°C° 0 mm 2 mps 633 mmHg 92%
05:00 +12°C° 0 mm 2 mps 633 mmHg 90%
06:00 +12°C° 0 mm 2 mps 633 mmHg 89%
07:00 +13°C° 0.1 mm 2 mps 634 mmHg 83%
08:00 +13°C° 0.1 mm 3 mps 634 mmHg 78%
09:00 +16°C° 0.1 mm 3 mps 635 mmHg 72%
10:00 +16°C° 0.1 mm 3 mps 634 mmHg 71%
11:00 +17°C° 0.1 mm 3 mps 634 mmHg 70%
12:00 +17°C° 0.1 mm 4 mps 634 mmHg 69%
13:00 +17°C° 0.1 mm 4 mps 634 mmHg 70%
14:00 +17°C° 0.1 mm 4 mps 633 mmHg 72%
15:00 +17°C° 0.1 mm 4 mps 633 mmHg 73%
16:00 +16°C° 0 mm 3 mps 633 mmHg 77%
17:00 +14°C° 0 mm 3 mps 633 mmHg 80%
18:00 +15°C° 0 mm 2 mps 632 mmHg 83%
19:00 +14°C° 0 mm 2 mps 632 mmHg 85%
20:00 +13°C° 0 mm 1 mps 632 mmHg 87%
21:00 +13°C° 0 mm 1 mps 632 mmHg 88%
22:00 +12°C° 0 mm 1 mps 632 mmHg 88%
23:00 +12°C° 0 mm 1 mps 632 mmHg 88%

19 August, Wednesday

Time Temperature Precipitation Wind Pressure Humidity
00:00 +11°C° 0 mm 0 mps 631 mmHg 88%
01:00 +11°C° 0 mm 0 mps 631 mmHg 88%
02:00 +11°C° 0 mm 0 mps 631 mmHg 88%
03:00 +11°C° 0 mm 1 mps 631 mmHg 87%
04:00 +12°C° 0 mm 1 mps 631 mmHg 86%
05:00 +12°C° 0 mm 1 mps 631 mmHg 84%
06:00 +12°C° 0 mm 1 mps 631 mmHg 82%
07:00 +14°C° 0 mm 1 mps 631 mmHg 76%
08:00 +15°C° 0 mm 2 mps 632 mmHg 70%
09:00 +17°C° 0 mm 2 mps 632 mmHg 65%
10:00 +18°C° 0 mm 3 mps 632 mmHg 63%
11:00 +19°C° 0 mm 3 mps 632 mmHg 61%
12:00 +19°C° 0 mm 3 mps 632 mmHg 59%
13:00 +19°C° 0 mm 3 mps 632 mmHg 60%
14:00 +19°C° 0 mm 3 mps 632 mmHg 62%
15:00 +19°C° 0 mm 3 mps 631 mmHg 63%
16:00 +18°C° 0 mm 3 mps 631 mmHg 67%
17:00 +17°C° 0 mm 3 mps 631 mmHg 72%
18:00 +16°C° 0 mm 3 mps 631 mmHg 76%
19:00 +15°C° 0 mm 2 mps 631 mmHg 79%
20:00 +14°C° 0 mm 2 mps 631 mmHg 82%
21:00 +14°C° 0 mm 1 mps 631 mmHg 85%
22:00 +13°C° 0 mm 1 mps 631 mmHg 83%
23:00 +13°C° 0 mm 1 mps 631 mmHg 82%

20 August, Thursday

Time Temperature Precipitation Wind Pressure Humidity
00:00 +13°C° 0 mm 1 mps 631 mmHg 80%
01:00 +13°C° 0 mm 1 mps 631 mmHg 79%
02:00 +13°C° 0 mm 1 mps 631 mmHg 77%
03:00 +13°C° 0 mm 1 mps 631 mmHg 76%
04:00 +13°C° 0 mm 1 mps 631 mmHg 75%
05:00 +14°C° 0 mm 1 mps 632 mmHg 75%
06:00 +14°C° 0 mm 1 mps 632 mmHg 74%
07:00 +15°C° 0 mm 2 mps 632 mmHg 69%
08:00 +17°C° 0 mm 2 mps 633 mmHg 63%
09:00 +18°C° 0 mm 3 mps 634 mmHg 58%
10:00 +19°C° 0 mm 3 mps 634 mmHg 55%
11:00 +20°C° 0 mm 3 mps 634 mmHg 53%
12:00 +21°C° 0 mm 4 mps 634 mmHg 50%
13:00 +21°C° 0 mm 4 mps 634 mmHg 49%
14:00 +21°C° 0 mm 4 mps 634 mmHg 48%
15:00 +22°C° 0 mm 4 mps 633 mmHg 47%
16:00 +20°C° 0 mm 4 mps 633 mmHg 50%
17:00 +19°C° 0 mm 3 mps 633 mmHg 54%
18:00 +18°C° 0 mm 2 mps 632 mmHg 58%
19:00 +17°C° 0 mm 2 mps 632 mmHg 60%
20:00 +16°C° 0 mm 1 mps 632 mmHg 61%
21:00 +15°C° 0 mm 1 mps 632 mmHg 63%
22:00 +15°C° 0 mm 1 mps 631 mmHg 62%
23:00 +15°C° 0 mm 1 mps 631 mmHg 62%
Show more